Regional Weather Roundup
Issued by NWS Columbia, SC

Home | Current Version | Previous Version | Text Only | Print | Product List | Glossary On
Versions: 1 2 3 4 5 6 7 8 9 10 11 12 13 14 15 16 17 18 19 20 21 22 23 24 25 26 27 28 29 30 31 32 33 34 35 36 37 38 39 40 41 42 43 44 45 46 47 48 49 50
000
ASUS42 KCAE 290710
RWRCAE
REGIONAL WEATHER ROUNDUP
NATIONAL WEATHER SERVICE COLUMBIA SC
300 AM EDT WED JUL 29 2015

NOTE: "FAIR" INDICATES FEW OR NO CLOUDS BELOW 12,000 FEET WITH NO
SIGNIFICANT WEATHER AND/OR OBSTRUCTIONS TO VISIBILITY.

NOT ALL STATIONS ARE QUALITY CONTROLLED BY THE NATIONAL
WEATHER SERVICE. USE DATA WITH CAUTION...ESPECIALLY
DEWPOINT OBSERVATIONS.

SCZ001>056-GAZ040-063>065-077-290800-
...UPSTATE SOUTH CAROLINA...

CITY           SKY/WX    TMP DP  RH WIND       PRES   REMARKS
ANDERSON       PTCLDY    76  72  87 E3        29.97F
SPARTANBURG      N/A     73  73 100 CALM      29.99F
CLEMSON        PTCLDY    79  74  84 CALM      29.98F
GREENVILLE     PTCLDY    77  71  82 CALM      29.99F
GREENWOOD      MOCLDY    73  72  96 E6        29.98F
GREER          PTCLDY    75  73  93 NE3       29.98F
ROCK HILL      PTCLDY    73  73 100 SE3       30.00F
CHESTER        SUNNY     73  72  94 CALM      30.00F
LAURENS        MOSUNNY   72  72 100 E3        29.98F


...CENTRAL SOUTH CAROLINA...

CITY           SKY/WX    TMP DP  RH WIND       PRES   REMARKS
COLUMBIA APT   PTCLDY    78  73  84 SE3       29.96F
COLUMBIA OWENS MOCLDY    77  74  90 CALM      29.98F
DARLINGTON     CLEAR     75  68  78 CALM      30.00S
FLORENCE       CLEAR     76  71  85 CALM      29.98F
MCENTIRE ANGB  PTCLDY    74  72  93 CALM      29.97F
ORANGEBURG     PTCLDY    77  72  84 CALM      29.97F
SUMTER SHAW    CLEAR     76  70  80 E5        29.96F
NEWBERRY       SUNNY     70  68  94 CALM      30.00F FOG
AIKEN          FAIR      73  72  94 SE3       30.01F
BARNWELL       FAIR      79  75  89 CALM      29.97F
MANNING        FAIR      72  70  94 CALM      29.97F
CAMDEN         FAIR      75  70  83 CALM      29.99S
LANCASTER      PTSUNNY   73  73 100 CALM      29.99F
WINNSBORO      MOSUNNY   73  72  94 SE5       29.98F


...EASTERN AND COASTAL SOUTH CAROLINA...

CITY           SKY/WX    TMP DP  RH WIND       PRES   REMARKS
MYRTLE BEACH   PTCLDY    79  70  73 E6        29.98F
N MYRTLE BCH   PTCLDY    73  71  93 NE5       29.97S
CONWAY         FAIR      70  70 100 CALM      29.97F FOG
MARION         FAIR      73  70  88 CALM      29.98F
HARTSVILLE     FAIR      73  70  88 CALM      29.98F
FLORENCE       CLEAR     76  71  85 CALM      29.98F
DARLINGTON     CLEAR     75  68  78 CALM      30.00S
CHARLESTON APT PTCLDY    75  73  93 N5        29.95F
MOUNT PLEASANT LGT RAIN  75  73  94 CALM      29.95F
WALTERBORO     SUNNY     77  72  83 CALM      29.96F
BEAUFORT       CLEAR     78  75  90 N3        29.95F


...EASTERN GEORGIA...

CITY           SKY/WX    TMP DP  RH WIND       PRES   REMARKS
AUGUSTA BUSH F PTCLDY    77  74  90 E6        29.95F
AUGUSTA DANIEL PTCLDY    81  73  76 SE6       29.97F
THOMSON        CLEAR     78  78 100 CALM      30.00F
WASHINGTON     FAIR      79  79 100 CALM      29.96F
CLAXTON        FAIR      75  73  94 CALM      29.96F
SYLVANIA       SUNNY     77  76  98 CALM      29.97F
STATESBORO     CLEAR     75  75 100 CALM      29.96F
SAVANNAH       CLEAR     77  75  93 N3        29.95F


...SOUTHERN NORTH CAROLINA...

CITY           SKY/WX    TMP DP  RH WIND       PRES   REMARKS
CHARLOTTE      MOCLDY    73  71  93 CALM      30.00F
MONROE         MOCLDY    74  71  91 CALM      29.99F
WADESBORO      PTSUNNY   75  71  85 SE3       29.99F
ROCKINGHAM     MOSUNNY   76  70  83 S3        29.99F
RUTHERFORDTON  CLEAR     72  72 100 CALM      30.01F
ASHEVILLE      CLEAR     71  67  87 CALM      30.07F

$$



USA.gov is the U.S. government's official web portal to all federal, state and local government web resources and services.